Time,TemperatureF,DewpointF,PressureIn,WindDirection,WindDirectionDegrees,WindSpeedMPH,WindSpeedGustMPH,Humidity,HourlyPrecipIn,Conditions,Clouds,dailyrainin,SolarRadiationWatts/m^2,SoftwareType,DateUTC
2014-09-16 00:00:00,76.4,71.9,30.00,ESE,111,0.0,0.0,86,0.00,,,0.00,0,Wunderground v.1.15,2014-09-16 04:00:00,
2014-09-16 00:10:00,76.2,72.0,29.99,ESE,111,0.0,0.0,87,0.00,,,0.00,0,Wunderground v.1.15,2014-09-16 04:10:00,
2014-09-16 00:15:00,76.2,72.0,29.99,ESE,111,0.0,0.0,87,0.00,,,0.00,0,Wunderground v.1.15,2014-09-16 04:15:00,
2014-09-16 00:20:00,76.2,72.0,29.99,ESE,111,0.0,0.0,87,0.00,,,0.00,0,Wunderground v.1.15,2014-09-16 04:20:00,
2014-09-16 00:25:00,76.2,72.4,29.99,ESE,111,0.0,0.0,88,0.00,,,0.00,0,Wunderground v.1.15,2014-09-16 04:25:00,
2014-09-16 00:30:00,76.1,72.3,29.99,ESE,111,0.0,0.0,88,0.00,,,0.00,0,Wunderground v.1.15,2014-09-16 04:30:00,
2014-09-16 00:40:00,75.9,72.1,29.99,ESE,111,0.0,0.0,88,0.00,,,0.00,0,Wunderground v.1.15,2014-09-16 04:40:00,
2014-09-16 00:50:00,75.7,71.9,29.98,ESE,111,0.0,0.0,88,0.00,,,0.00,0,Wunderground v.1.15,2014-09-16 04:50:00,
2014-09-16 00:55:00,75.6,72.1,29.98,ESE,111,0.0,0.0,89,0.00,,,0.00,0,Wunderground v.1.15,2014-09-16 04:55:00,
2014-09-16 01:00:00,75.6,72.1,29.98,ESE,111,0.0,0.0,89,0.00,,,0.00,0,Wunderground v.1.15,2014-09-16 05:00:00,
2014-09-16 01:05:00,75.5,72.0,29.98,ESE,111,0.0,0.0,89,0.00,,,0.00,0,Wunderground v.1.15,2014-09-16 05:05:00,
2014-09-16 01:10:00,75.4,71.9,29.98,ESE,111,0.0,0.0,89,0.00,,,0.00,0,Wunderground v.1.15,2014-09-16 05:10:00,
2014-09-16 01:15:00,75.4,71.9,29.98,ESE,111,0.0,0.0,89,0.00,,,0.00,0,Wunderground v.1.15,2014-09-16 05:15:00,
2014-09-16 01:20:00,75.3,71.8,29.98,ESE,111,0.0,0.0,89,0.00,,,0.00,0,Wunderground v.1.15,2014-09-16 05:20:00,
2014-09-16 01:25:00,75.2,72.1,29.98,ESE,111,0.0,0.0,90,0.00,,,0.00,0,Wunderground v.1.15,2014-09-16 05:25:00,
2014-09-16 01:30:00,75.2,72.1,29.98,ESE,111,0.0,0.0,90,0.00,,,0.00,0,Wunderground v.1.15,2014-09-16 05:30:00,
2014-09-16 01:35:00,75.1,72.0,29.98,ESE,111,0.0,0.0,90,0.00,,,0.00,0,Wunderground v.1.15,2014-09-16 05:35:00,
2014-09-16 01:45:00,74.9,71.8,29.98,ESE,111,0.0,0.0,90,0.00,,,0.00,0,Wunderground v.1.15,2014-09-16 05:45:00,
2014-09-16 01:50:00,74.9,71.8,29.98,ESE,111,0.0,0.0,90,0.00,,,0.00,0,Wunderground v.1.15,2014-09-16 05:50:00,
2014-09-16 01:55:00,74.8,72.0,29.97,ESE,111,0.0,0.0,91,0.00,,,0.00,0,Wunderground v.1.15,2014-09-16 05:55:00,
2014-09-16 02:00:00,74.7,71.9,29.97,ESE,111,0.0,0.0,91,0.00,,,0.00,0,Wunderground v.1.15,2014-09-16 06:00:00,
2014-09-16 02:05:00,74.8,72.0,29.97,ESE,111,0.0,0.0,91,0.00,,,0.00,0,Wunderground v.1.15,2014-09-16 06:05:00,
2014-09-16 02:10:00,74.7,71.9,29.97,ESE,111,0.0,0.0,91,0.00,,,0.00,0,Wunderground v.1.15,2014-09-16 06:10:00,
2014-09-16 02:20:00,74.5,71.7,29.97,ESE,111,0.0,0.0,91,0.00,,,0.00,0,Wunderground v.1.15,2014-09-16 06:20:00,
2014-09-16 02:25:00,74.4,71.6,29.96,ESE,111,0.0,0.0,91,0.00,,,0.00,0,Wunderground v.1.15,2014-09-16 06:25:00,
2014-09-16 02:30:00,74.3,71.5,29.96,ESE,111,0.0,0.0,91,0.00,,,0.00,0,Wunderground v.1.15,2014-09-16 06:30:00,
2014-09-16 02:35:00,74.2,71.4,29.96,ESE,111,0.0,0.0,91,0.00,,,0.00,0,Wunderground v.1.15,2014-09-16 06:35:00,
2014-09-16 02:40:00,74.2,71.4,29.95,ESE,111,0.0,0.0,91,0.00,,,0.00,0,Wunderground v.1.15,2014-09-16 06:40:00,
2014-09-16 02:50:00,74.2,71.7,29.95,ESE,111,0.0,0.0,92,0.00,,,0.00,0,Wunderground v.1.15,2014-09-16 06:50:00,
2014-09-16 02:55:00,74.2,71.7,29.95,ESE,111,0.0,0.0,92,0.00,,,0.00,0,Wunderground v.1.15,2014-09-16 06:55:00,
2014-09-16 03:00:00,74.2,71.7,29.95,ESE,111,0.0,0.0,92,0.00,,,0.00,0,Wunderground v.1.15,2014-09-16 07:00:00,
2014-09-16 03:10:00,74.2,71.7,29.94,ESE,111,0.0,0.0,92,0.00,,,0.00,0,Wunderground v.1.15,2014-09-16 07:10:00,
2014-09-16 03:20:00,74.2,72.0,29.94,ESE,111,0.0,0.0,93,0.00,,,0.00,0,Wunderground v.1.15,2014-09-16 07:20:00,
2014-09-16 03:25:00,74.2,72.0,29.94,ESE,111,0.0,0.0,93,0.00,,,0.00,0,Wunderground v.1.15,2014-09-16 07:25:00,
2014-09-16 03:30:00,74.1,71.9,29.94,ESE,111,0.0,0.0,93,0.00,,,0.00,0,Wunderground v.1.15,2014-09-16 07:30:00,
2014-09-16 03:40:00,74.0,71.8,29.94,ESE,111,0.0,0.0,93,0.00,,,0.00,0,Wunderground v.1.15,2014-09-16 07:40:00,
2014-09-16 03:50:00,73.9,71.7,29.94,ESE,111,0.0,0.0,93,0.00,,,0.00,0,Wunderground v.1.15,2014-09-16 07:50:00,
2014-09-16 03:55:00,73.9,71.7,29.94,ESE,111,0.0,0.0,93,0.00,,,0.00,0,Wunderground v.1.15,2014-09-16 07:55:00,
2014-09-16 04:00:00,73.9,72.1,29.94,ESE,111,0.0,0.0,94,0.00,,,0.00,0,Wunderground v.1.15,2014-09-16 08:00:00,
2014-09-16 04:05:00,73.9,72.1,29.94,ESE,111,0.0,0.0,94,0.00,,,0.00,0,Wunderground v.1.15,2014-09-16 08:05:00,